Wind_Speed
29 31 31 35 40 43 44 45 46 43 39 37 35 35 36 36 37 36 35 35 33 32 31 30 30 29 29 28 26 25 25 27 27 26 27 27 26 19 15 18 20 21 22 20 18 17 18 18 17 14 11 9 6 9 10 5 2 2 2 3 2 3 3 5 7 7 4 4 9 14 17 12 8 12 11 7 12 15 17 14 13 18 13 11 10 8 24 30
22 27 31 33 37 42 43 44 46 45 41 39 37 36 36 36 38 37 37 36 34 33 32 31 29 28 28 28 29 27 24 24 25 27 28 27 27 21 16 17 17 18 20 16 15 16 15 17 18 14 9 6 7 8 9 6 3 1 3 2 3 5 5 5 7 9 5 5 13 16 16 16 15 17 15 8 8 12 11 9 12 16 14 12 11 14 28 31
21 22 27 31 33 37 43 46 47 46 42 40 38 37 36 37 39 38 37 37 34 33 33 31 29 29 28 29 30 30 27 22 22 28 30 28 26 22 18 18 17 16 19 15 13 17 15 15 16 13 10 6 5 6 9 7 4 2 2 1 5 6 6 6 7 11 10 8 15 17 14 15 18 20 16 10 8 8 8 11 12 14 15 15 15 20 31 32
26 25 25 29 32 33 40 46 46 47 44 41 39 38 38 38 39 39 38 37 35 34 33 32 31 30 29 29 28 29 28 19 20 29 31 31 28 23 20 20 19 18 17 15 12 15 16 14 14 14 10 6 4 5 8 5 4 3 3 4 5 2 3 8 8 10 11 11 16 17 12 11 18 20 16 14 8 5 12 18 18 17 19 18 19 25 32 34
26 31 32 29 30 29 36 44 44 47 45 41 41 40 40 39 40 40 39 38 35 34 34 33 32 31 30 28 27 27 24 10 14 30 31 32 32 25 23 22 21 20 18 15 12 13 14 13 14 14 9 4 2 3 5 5 7 4 5 7 8 3 3 9 7 6 9 12 14 15 12 14 18 16 18 19 11 9 18 23 20 18 18 18 21 27 33 35
21 27 34 34 31 26 31 43 43 45 46 41 43 42 41 41 41 41 40 39 36 35 34 33 32 32 30 29 27 27 23 6 4 24 30 28 29 26 24 23 22 21 19 16 12 12 13 13 14 13 8 3 3 3 5 9 9 3 6 8 10 7 6 9 8 5 9 14 18 17 14 18 17 10 17 23 18 15 18 21 19 16 16 17 21 27 33 36
24 23 27 32 35 29 27 41 45 45 48 45 45 44 42 42 42 43 42 40 37 35 34 33 32 31 31 29 27 26 27 13 2 13 28 27 25 24 24 23 22 21 20 17 14 14 14 14 15 14 8 4 3 2 6 12 9 0 5 9 11 11 10 12 10 6 10 17 21 18 14 19 17 9 13 23 24 15 10 16 19 16 16 19 23 27 31 33
29 27 26 26 31 33 28 35 45 47 49 48 46 45 43 44 44 44 44 40 38 35 34 34 32 32 32 30 29 23 27 25 5 5 23 28 24 23 23 22 21 19 19 19 17 17 14 14 17 15 8 3 3 1 5 9 7 1 4 10 13 13 12 13 11 6 9 13 15 13 11 17 17 9 11 21 24 15 10 13 18 18 18 22 24 26 29 31
28 30 33 30 29 34 32 32 40 46 52 51 47 47 45 45 45 45 45 42 39 36 34 34 31 32 30 30 29 18 23 33 17 5 16 27 26 24 24 23 23 20 19 19 18 19 15 16 19 16 11 7 5 1 6 5 2 2 7 14 16 16 14 10 8 5 9 9 10 11 7 9 11 5 8 19 22 17 14 14 18 21 21 23 25 26 28 31
25 29 34 39 36 35 35 36 35 39 52 54 48 49 48 47 47 46 46 43 40 37 34 34 32 31 29 30 27 13 21 35 23 7 11 24 27 25 27 25 25 24 22 21 19 20 19 18 20 17 13 9 7 2 4 1 2 9 16 19 17 16 14 9 5 3 8 7 9 11 4 4 7 3 5 14 19 18 16 15 20 23 22 23 25 26 28 29
24 29 32 37 38 34 33 36 33 30 43 54 50 50 50 49 48 48 47 43 40 38 35 35 33 32 30 30 25 12 19 32 24 10 8 20 26 25 26 24 24 26 24 23 21 21 21 19 21 18 9 6 7 3 4 3 8 17 18 16 13 10 9 8 3 3 6 5 10 9 2 1 2 2 7 12 19 19 18 17 21 25 24 23 25 26 28 28
23 29 32 34 36 34 33 35 33 28 34 52 53 50 52 50 49 49 48 44 40 38 36 35 34 33 30 28 25 18 18 27 26 14 6 17 25 22 23 22 21 23 23 25 23 22 22 21 23 18 9 9 8 2 3 7 14 18 11 7 8 5 5 8 4 5 5 3 9 8 2 3 2 8 11 11 20 20 17 19 21 26 27 25 26 27 29 28
24 29 32 34 36 36 37 38 37 32 33 49 55 52 54 51 49 50 49 45 40 38 37 36 34 33 29 22 22 22 18 24 28 17 8 15 23 21 20 19 17 17 19 23 24 22 22 22 24 19 14 13 8 3 2 9 13 12 5 2 3 5 5 7 4 5 4 2 9 10 2 6 7 17 15 9 20 22 18 20 22 25 28 28 28 28 29 29
27 31 31 34 36 35 36 38 40 39 37 47 56 52 54 53 49 51 50 46 41 38 36 35 33 33 28 19 20 24 19 23 28 20 13 14 21 22 19 17 14 15 17 20 23 23 22 22 23 19 15 13 8 4 2 8 6 5 3 1 0 1 4 6 2 6 5 3 9 9 4 6 8 18 17 11 20 24 22 22 23 25 29 30 30 30 30 30
28 31 32 34 36 32 33 35 39 43 39 42 57 54 53 54 50 51 50 46 42 38 37 36 34 32 24 15 19 24 22 23 26 24 17 14 20 23 20 18 16 17 18 19 22 23 23 23 22 17 12 10 8 4 3 5 3 3 2 3 2 3 4 7 2 8 7 3 7 7 3 6 8 12 14 14 19 24 25 24 25 26 28 30 31 31 31 30
29 30 32 35 37 33 31 32 35 42 38 37 55 56 52 52 49 50 49 45 42 38 38 36 36 33 18 10 16 23 25 23 25 26 21 16 18 21 21 20 18 17 16 17 20 21 23 22 18 15 11 8 5 4 3 2 4 3 1 3 2 3 2 5 3 6 5 2 3 5 2 4 6 6 7 15 21 23 24 25 26 28 28 30 30 31 31 31
31 31 33 35 39 35 32 33 32 37 38 36 50 57 53 51 48 48 46 45 41 39 40 37 38 31 12 9 15 23 30 27 25 28 25 19 17 20 22 21 20 18 17 17 18 19 20 18 13 10 7 5 4 5 4 5 6 2 0 2 3 3 3 2 4 5 3 3 3 5 3 6 7 4 1 12 21 23 24 25 27 29 29 30 30 30 31 31
32 33 34 36 38 37 34 34 32 35 39 41 51 56 52 50 47 47 46 45 43 39 35 32 34 22 8 17 22 25 34 30 27 29 29 24 19 20 23 23 23 22 20 18 16 17 15 11 9 5 3 5 5 7 8 7 5 3 2 2 2 2 3 3 3 3 4 3 3 5 5 10 11 9 5 6 15 22 24 25 25 28 30 30 30 31 31 31
33 34 36 36 37 38 35 35 34 36 41 42 53 59 52 52 50 47 49 49 42 28 18 27 35 13 4 23 27 24 32 31 27 28 30 27 22 24 25 25 27 26 22 13 9 16 13 6 6 5 6 8 8 9 9 3 3 4 4 2 3 3 3 4 4 4 4 4 5 6 7 10 12 13 7 3 10 18 22 22 22 25 27 29 31 31 31 32
33 34 38 37 37 38 37 37 37 38 41 39 48 59 47 42 32 25 41 49 44 27 15 34 42 11 5 24 29 25 30 30 27 28 29 29 28 28 26 25 25 21 15 9 6 14 13 6 6 8 8 9 9 9 8 3 2 3 2 1 2 3 3 4 3 5 1 4 6 7 8 10 11 12 8 4 7 13 19 21 23 24 26 29 31 32 32 32
35 35 38 38 38 38 38 41 38 38 41 39 43 52 43 37 21 21 41 41 44 38 23 35 41 14 8 24 31 30 30 24 24 27 26 29 32 27 23 23 16 8 9 12 10 10 11 7 7 5 4 7 8 7 6 6 6 5 4 3 3 3 4 5 3 4 1 4 4 3 5 10 11 11 9 5 6 12 20 23 24 27 27 29 32 33 33 31
37 36 38 40 39 38 41 43 39 40 40 39 43 41 46 47 35 48 52 26 27 32 24 34 35 19 14 21 28 34 32 20 17 25 26 30 32 22 18 17 9 4 6 11 9 6 7 6 4 6 6 7 7 6 6 6 6 5 5 4 4 3 3 5 3 3 2 3 3 1 4 9 11 10 8 8 10 16 23 24 27 29 28 30 33 34 34 33
39 39 39 40 41 38 43 44 39 42 42 45 47 37 46 43 32 58 53 18 10 16 24 32 23 21 25 24 29 34 32 22 18 26 29 32 31 24 21 15 8 7 7 8 8 7 6 5 6 10 10 9 8 7 6 5 4 5 3 4 5 2 1 3 3 2 2 1 1 1 3 7 8 7 7 13 19 21 24 23 25 28 29 33 34 33 33 33
40 42 40 42 43 39 44 44 39 46 46 49 50 37 44 38 29 56 45 15 5 8 23 29 19 26 27 22 29 28 24 21 21 30 32 31 29 24 22 17 11 9 8 10 11 9 4 6 13 13 9 11 11 10 8 5 4 5 5 6 5 4 5 4 2 0 1 2 2 3 3 5 6 6 7 11 14 19 22 20 22 27 30 33 33 32 34 34
40 44 44 43 44 42 45 41 41 52 51 51 53 36 37 37 34 52 34 11 3 4 16 22 19 26 25 23 28 24 19 14 17 31 34 31 29 21 16 17 13 7 9 11 9 7 5 10 18 13 9 12 12 10 9 6 4 5 6 8 9 7 6 4 1 2 2 3 2 1 2 5 4 5 9 7 4 9 15 14 21 28 30 32 33 34 35 34
41 45 46 45 46 44 41 38 42 54 51 51 55 39 32 37 37 45 25 6 2 4 10 17 15 21 25 25 28 26 16 5 11 30 34 29 28 23 14 10 6 5 10 9 4 3 4 10 15 12 12 13 11 10 8 7 5 4 5 8 10 7 3 3 3 3 3 4 3 2 4 6 6 4 8 5 4 8 9 9 18 28 31 33 36 38 38 36
43 46 48 48 48 45 41 40 41 49 50 50 54 42 30 34 37 36 16 2 5 5 8 12 11 18 23 25 31 22 9 9 15 26 34 28 24 23 15 7 4 5 9 6 2 3 5 9 9 11 13 11 10 9 7 8 7 4 4 7 8 7 6 6 6 5 3 3 2 3 3 4 5 5 6 2 4 9 8 8 14 24 32 36 39 42 42 40
47 48 49 51 50 48 48 43 40 53 56 52 55 47 31 38 42 29 9 3 7 6 8 9 9 18 24 28 28 12 11 24 17 17 34 29 19 17 12 8 9 9 11 10 5 4 7 11 11 12 12 9 10 8 7 9 6 6 3 5 6 5 5 5 7 4 1 1 3 3 2 3 5 6 5 3 3 8 9 9 12 21 32 36 39 42 43 43
51 51 52 54 51 53 54 44 45 61 61 52 54 49 38 41 36 15 2 4 5 6 10 12 11 18 25 24 15 9 17 20 9 16 33 26 15 10 7 11 13 10 11 10 6 3 4 10 16 16 10 8 8 6 8 10 5 4 5 6 5 4 4 3 4 3 2 1 6 5 3 3 5 5 3 1 3 7 9 9 10 19 27 30 33 37 39 41
54 55 56 57 54 56 55 48 49 59 60 55 52 48 45 36 20 7 5 5 4 5 12 15 13 18 25 17 6 9 14 7 9 22 25 20 16 7 8 16 13 8 5 5 6 4 1 4 12 11 7 8 8 5 7 10 7 7 6 5 6 5 4 3 2 3 2 3 6 6 3 2 4 5 4 4 5 7 8 7 9 14 17 18 20 23 26 30
56 60 60 60 61 58 56 53 47 46 56 56 50 51 44 21 4 4 7 6 6 6 10 12 12 17 22 16 7 10 11 6 14 22 14 12 13 6 9 13 8 5 4 5 6 3 5 3 5 4 6 8 7 4 3 5 8 8 4 4 4 2 2 3 3 2 2 5 6 4 1 3 5 5 4 6 6 6 8 7 8 10 12 11 9 11 15 18
58 65 64 65 67 61 59 59 47 43 55 57 54 50 29 7 3 4 6 9 8 7 9 12 14 17 19 17 10 9 9 7 13 17 12 9 9 7 7 8 7 6 6 8 5 1 1 2 1 0 5 8 8 5 2 1 5 5 4 6 5 1 1 2 2 1 4 5 3 2 1 2 5 7 8 9 11 10 11 13 13 13 16 14 8 9 10 12
59 68 68 69 71 65 63 60 50 51 58 59 54 36 11 4 6 3 5 8 7 9 13 15 17 18 19 16 10 8 7 6 11 15 11 8 7 6 4 4 8 7 4 7 6 4 3 5 2 2 3 7 9 7 4 2 4 5 5 6 6 3 4 6 3 1 4 4 3 2 1 3 4 6 10 13 16 16 13 16 20 19 20 19 15 13 11 10
61 69 71 72 72 69 64 56 53 59 64 60 42 18 6 7 3 3 6 6 6 10 11 12 16 16 14 11 9 10 6 2 7 12 11 8 7 7 6 7 9 5 5 6 5 7 7 4 5 5 3 8 8 6 6 6 5 5 3 5 5 5 5 5 3 3 4 3 3 2 1 3 3 4 8 12 17 19 16 18 21 22 23 23 22 21 16 11
64 71 72 72 70 67 62 56 59 67 68 52 23 8 9 7 2 4 6 4 7 10 10 13 17 15 9 6 8 10 4 2 6 8 10 11 10 10 10 9 9 6 7 7 4 5 9 5 3 1 1 7 7 5 6 8 5 4 1 3 4 5 5 3 3 5 3 1 2 2 3 4 4 6 10 9 12 17 19 19 19 19 20 20 24 25 20 15
65 69 70 68 67 66 61 58 63 69 65 39 10 7 10 4 4 7 7 8 12 15 18 15 13 12 7 4 7 6 2 5 9 7 7 10 9 10 9 7 9 9 9 9 4 3 7 4 3 2 2 2 5 5 4 5 5 2 2 4 5 3 6 4 1 1 3 2 3 1 3 5 3 7 10 7 7 11 13 13 15 17 15 15 21 24 22 18
66 67 65 64 67 66 62 62 68 70 58 28 7 9 8 5 9 10 9 12 16 20 22 15 10 12 11 7 9 9 4 6 10 8 7 7 7 11 11 8 11 13 10 8 3 2 6 2 3 1 2 2 2 4 2 1 4 4 4 6 3 2 4 3 2 1 3 4 4 0 4 4 2 4 7 7 7 11 10 8 10 14 14 15 18 19 20 19
67 64 59 61 67 64 61 65 73 69 46 18 10 13 8 7 12 12 12 14 16 17 15 11 9 10 13 12 12 14 13 10 10 9 9 8 6 12 17 11 10 15 13 8 4 2 5 3 3 1 2 2 2 4 3 1 2 3 4 6 4 2 2 1 3 3 2 4 4 3 3 4 3 5 5 7 8 11 10 6 6 10 15 19 20 17 17 17
66 53 44 58 67 62 63 68 69 57 30 11 12 11 5 7 10 17 24 21 16 15 11 11 10 8 12 15 14 15 14 13 14 10 9 9 5 9 18 12 6 14 18 10 5 3 4 4 2 2 0 1 3 2 6 3 2 3 1 3 2 2 4 3 3 4 3 3 4 4 3 3 6 6 6 9 11 9 8 6 5 10 16 21 21 18 16 16
61 33 26 57 68 60 68 68 54 35 16 10 13 9 6 7 8 22 38 32 18 11 10 12 13 10 11 12 14 14 9 9 15 10 6 9 6 5 14 14 6 10 13 7 4 4 3 4 3 2 2 1 1 3 7 7 3 2 3 4 2 0 2 2 1 3 4 4 3 3 4 5 6 6 9 13 13 10 8 6 6 11 14 17 19 19 17 17
52 19 19 57 67 63 69 51 25 15 9 11 12 8 9 8 8 20 36 36 18 5 7 14 15 14 13 12 13 13 9 8 13 9 3 8 9 4 10 17 12 10 10 4 3 5 2 3 5 2 0 3 3 3 4 5 5 4 4 6 5 3 4 3 4 1 2 3 4 4 5 7 6 5 9 12 12 9 7 6 8 14 15 14 14 14 15 17
40 10 21 57 66 69 60 25 7 9 8 12 11 8 9 9 10 17 26 27 15 2 4 11 12 12 11 11 11 10 10 9 11 10 5 9 11 6 10 21 23 19 13 5 3 5 3 5 5 2 3 6 4 2 1 2 2 2 3 4 5 5 5 5 6 3 1 1 2 3 4 8 6 5 8 11 10 7 5 6 12 16 15 11 9 9 10 13
29 13 31 60 69 72 46 9 8 12 5 9 11 9 9 8 11 17 18 19 11 3 6 8 9 11 10 10 12 10 8 7 8 10 6 5 7 6 13 26 28 21 11 5 4 5 4 4 4 1 3 3 5 4 2 2 2 1 4 2 4 4 2 3 4 3 3 4 3 2 5 8 6 4 7 10 11 10 9 9 13 15 11 6 7 8 7 9
27 25 41 60 71 69 33 4 11 12 5 9 8 5 6 5 12 17 16 16 11 7 9 9 12 14 12 13 16 16 13 8 6 8 5 4 5 9 22 33 29 18 11 10 11 9 5 2 5 3 2 4 4 4 3 2 1 2 2 0 2 2 5 3 2 3 2 6 6 5 7 7 5 3 3 6 7 9 11 10 11 12 8 5 7 7 7 7
25 21 33 52 67 60 26 9 17 13 10 14 9 8 7 5 14 23 22 16 8 8 10 9 12 13 13 16 16 16 16 8 6 7 2 3 5 7 22 36 31 20 16 16 17 15 7 3 5 6 5 5 7 7 7 5 2 1 1 2 4 5 6 4 2 2 6 5 5 7 9 6 4 5 4 4 5 6 9 10 10 11 10 8 8 6 6 7
18 8 15 30 45 42 20 16 21 13 14 17 11 10 11 8 12 21 23 12 3 7 7 5 10 11 11 16 13 13 15 5 4 8 6 7 6 3 18 34 32 24 20 22 27 18 4 2 7 8 10 12 10 8 6 9 8 8 10 10 8 8 8 5 4 5 8 3 5 12 11 6 5 5 6 6 5 5 8 9 9 10 11 10 8 5 5 5
16 9 11 14 18 19 11 11 14 10 15 18 11 11 16 14 9 12 17 10 7 12 6 4 12 13 14 20 14 13 16 5 5 12 13 11 5 2 14 25 24 24 21 22 28 18 3 5 10 10 12 10 6 6 7 10 12 15 14 12 9 8 9 8 9 11 6 4 9 10 3 4 8 5 5 8 7 6 6 7 6 7 8 8 7 5 4 5
9 10 18 20 12 6 8 12 8 8 17 18 10 11 16 17 14 13 11 6 9 15 7 4 15 19 21 24 16 13 15 8 5 11 12 8 4 5 8 9 11 18 19 18 21 13 4 9 11 10 11 6 3 7 9 10 10 8 11 14 12 11 12 14 20 15 8 8 15 6 6 10 9 6 9 10 8 6 5 5 4 5 7 7 7 7 7 7
8 9 11 15 10 7 15 21 15 11 16 15 8 10 15 17 18 14 6 5 9 14 12 11 18 23 25 24 17 15 16 12 10 12 13 14 12 10 9 5 5 10 11 10 10 5 4 7 7 9 10 4 3 7 8 10 8 6 10 14 13 15 18 21 22 16 11 17 15 2 5 11 5 6 10 11 12 13 10 9 9 10 12 11 11 11 10 11
13 14 11 9 7 9 16 21 20 15 13 12 10 10 14 18 21 14 6 9 15 15 17 20 22 23 25 25 20 18 23 24 21 19 17 16 13 10 9 7 5 5 5 6 4 1 2 4 2 7 7 3 2 4 4 7 8 7 9 11 14 18 20 20 18 10 10 17 12 5 13 13 5 9 12 14 18 15 12 14 16 16 15 13 13 13 14 15
22 29 29 18 7 8 11 12 15 15 11 11 11 11 14 18 21 16 6 6 13 15 18 23 24 20 19 22 22 22 28 28 23 23 25 23 19 16 9 6 9 9 5 5 5 2 3 2 2 6 5 4 2 6 5 4 5 3 7 11 17 18 15 14 12 9 12 15 10 9 14 10 5 9 11 12 14 12 13 19 21 21 18 15 15 16 17 18
30 34 35 23 9 9 12 10 11 13 11 12 10 9 11 15 18 17 8 2 6 10 11 16 20 15 14 20 23 24 27 23 18 23 30 30 27 22 16 18 23 19 10 6 4 3 6 5 2 5 6 4 2 7 8 6 4 3 9 14 17 15 11 9 9 11 16 13 9 12 13 5 6 7 7 6 7 11 17 23 25 24 21 18 19 19 20 21
Wind_Direction
225 226 213 205 206 208 207 207 208 202 199 199 198 198 197 199 198 197 197 193 193 193 191 192 193 195 196 196 197 197 197 199 200 200 200 200 197 196 198 197 197 198 200 199 199 200 198 199 196 187 186 210 277 331 350 0 354 330 103 104 184 190 202 188 179 191 169 184 192 178 177 170 163 176 172 157 162 153 159 181 188 189 207 219 215 200 181 177
219 224 221 209 202 208 209 208 209 203 198 199 198 197 196 199 199 196 196 193 192 192 190 189 190 192 194 196 200 201 199 203 206 206 207 204 200 202 206 201 200 204 205 202 201 198 193 194 195 195 194 219 267 308 337 353 1 329 119 122 218 204 214 199 182 192 190 186 182 178 181 178 174 172 164 158 168 156 157 182 188 193 203 201 196 185 179 179
219 217 221 214 204 208 211 206 205 205 201 197 197 195 194 197 198 195 194 194 192 191 190 187 187 188 192 196 201 204 201 204 211 211 210 205 201 203 209 206 202 207 207 202 204 204 202 197 196 203 203 210 242 291 322 337 342 284 140 198 238 221 241 248 224 217 222 195 174 177 184 180 176 172 169 171 176 181 187 178 178 191 192 185 182 181 181 181
229 228 223 216 208 208 213 208 203 204 200 194 196 195 194 196 196 195 193 193 190 190 188 185 185 186 190 195 198 202 198 201 219 216 213 209 205 205 209 209 206 209 209 203 208 209 210 210 206 205 197 190 216 278 304 323 340 298 174 202 235 196 255 269 260 245 232 201 182 172 169 177 174 172 176 168 156 232 222 195 190 192 184 180 180 183 184 184
224 231 231 224 214 212 213 208 205 205 200 192 195 195 193 195 195 195 192 191 189 188 186 183 184 186 189 191 193 196 188 187 227 217 216 215 211 212 213 212 213 214 212 210 211 207 210 212 202 191 179 168 183 252 281 337 358 312 251 247 259 242 256 285 290 253 216 192 182 167 165 176 169 174 185 173 167 221 217 207 205 200 191 189 187 185 187 188
213 223 231 230 222 224 214 204 204 207 204 197 195 196 194 195 195 194 192 189 187 186 184 182 183 186 190 191 194 197 189 171 235 211 211 212 210 212 212 213 217 220 220 221 217 209 205 197 183 166 146 112 103 209 271 338 1 324 274 282 281 266 253 287 304 254 204 180 177 178 178 171 162 184 195 187 196 213 217 214 209 206 205 201 191 186 188 191
217 218 227 229 225 230 218 204 205 206 205 200 196 196 194 196 196 195 193 188 186 184 183 182 182 187 190 191 194 197 196 194 63 198 202 202 203 205 207 210 214 221 223 221 214 203 198 190 174 150 129 109 107 218 289 330 349 66 257 287 291 278 267 282 295 269 206 186 184 182 178 172 172 185 193 200 208 214 229 218 209 207 204 197 190 189 193 196
214 216 218 224 226 228 220 207 208 209 206 200 195 195 194 195 196 195 193 189 187 183 182 182 183 187 189 189 188 188 197 203 204 190 197 198 202 202 202 203 208 219 220 219 215 203 194 182 173 155 136 112 115 237 337 343 346 114 252 294 298 283 279 284 287 262 206 192 185 179 181 183 184 178 191 209 211 213 230 216 208 205 197 194 194 195 197 199
208 213 216 222 230 230 228 216 210 209 207 201 195 194 194 195 195 195 193 191 188 185 184 184 186 188 190 191 185 184 201 204 210 214 193 196 201 204 204 205 210 213 210 211 212 209 195 168 171 173 168 151 132 36 6 13 353 348 309 311 306 289 289 290 286 252 206 202 186 180 188 185 184 182 217 219 211 211 226 217 206 202 196 195 199 201 200 201
208 211 215 221 231 235 235 228 219 210 203 200 196 192 193 195 194 194 192 191 190 188 185 185 187 186 188 190 182 184 206 204 210 213 187 193 195 198 203 209 212 209 206 206 205 210 204 179 174 176 172 161 150 146 0 23 276 319 317 313 300 284 284 281 290 239 198 208 198 185 181 182 182 193 244 221 206 207 218 212 202 200 199 199 202 205 204 205
211 208 209 215 224 231 232 231 230 223 205 196 194 193 193 194 193 193 192 191 190 188 187 186 185 184 184 185 179 180 199 199 205 199 177 191 191 194 199 204 209 209 207 205 203 209 210 196 179 169 157 150 154 196 298 311 316 314 313 315 301 282 275 258 256 210 188 198 204 184 117 247 172 226 238 208 197 205 210 204 200 200 202 202 205 207 208 209
211 207 211 213 219 227 231 233 231 235 217 196 193 195 193 193 193 192 191 191 190 188 187 186 186 186 183 184 186 188 191 191 195 191 170 189 190 192 195 198 206 211 213 207 202 206 210 206 190 178 160 148 146 185 281 319 321 309 300 306 307 335 302 250 216 199 195 195 195 163 71 282 240 233 233 203 196 201 203 202 199 200 204 204 206 209 210 212
208 206 215 216 220 229 231 235 233 237 229 201 193 194 192 192 192 191 190 189 190 188 188 187 187 188 185 185 192 194 190 187 193 191 168 186 191 189 188 192 201 209 221 216 205 202 206 208 200 185 160 149 149 165 258 327 323 309 290 218 305 4 322 249 191 181 190 200 179 156 205 259 243 234 231 206 199 198 198 202 200 202 205 205 207 210 213 214
207 206 214 214 218 226 227 232 235 238 235 205 192 193 193 192 191 190 190 189 188 187 189 188 188 189 188 189 195 195 192 190 195 190 171 177 185 188 186 185 194 200 214 219 208 200 196 200 198 181 157 154 157 160 328 335 333 321 300 248 32 128 272 279 193 163 167 214 181 156 224 253 252 241 231 217 205 200 201 204 204 205 206 208 209 211 215 216
210 209 210 210 212 219 222 228 233 235 237 209 191 191 192 191 191 189 189 189 188 187 188 188 188 189 186 192 199 195 193 194 197 192 180 171 176 182 182 182 192 197 204 209 204 196 188 191 189 168 152 158 150 118 19 339 338 349 272 289 353 160 259 306 247 179 171 198 182 159 231 255 270 256 230 219 210 203 207 209 209 210 210 211 213 214 217 220
213 211 209 208 207 214 217 221 230 229 232 214 192 190 191 189 189 189 189 188 186 187 186 185 187 187 182 189 198 194 193 194 194 193 186 173 174 177 178 183 187 189 192 192 191 188 184 185 176 159 156 159 138 96 58 338 318 350 207 247 292 165 233 311 274 215 186 124 185 196 235 246 270 278 221 213 211 206 209 213 212 213 215 215 216 218 220 222
214 212 211 207 206 212 212 215 226 223 226 221 196 189 188 187 187 187 188 188 186 186 187 186 185 185 187 193 192 193 192 191 189 191 187 175 175 178 178 176 170 175 174 170 175 172 171 170 160 157 160 149 124 117 147 228 245 282 242 224 233 184 193 264 281 250 189 109 204 224 243 243 257 306 268 210 209 207 212 218 217 216 217 218 219 221 223 225
217 213 212 210 208 208 210 213 218 219 224 220 198 188 186 186 185 182 182 185 180 179 185 185 180 180 211 202 193 194 192 191 188 189 187 179 176 180 181 173 163 162 151 147 161 159 157 159 148 146 159 163 164 159 181 207 196 187 195 205 231 206 205 230 254 232 163 135 207 210 241 257 266 284 297 229 209 209 217 222 223 222 220 220 222 223 225 227
219 215 212 212 210 206 207 208 211 216 220 213 190 183 184 178 176 177 176 177 172 170 181 177 175 177 230 196 192 193 190 187 184 183 183 178 175 180 179 172 165 155 142 136 161 159 150 142 146 174 189 185 191 180 181 180 128 160 176 160 176 197 230 227 240 254 171 165 218 211 227 247 256 262 266 247 214 217 227 231 232 231 227 225 225 226 228 230
222 217 212 213 211 206 205 204 209 209 214 218 185 171 173 163 158 165 165 171 174 175 183 176 178 175 104 172 178 180 178 177 179 176 178 177 173 174 170 165 160 151 146 140 159 165 156 162 191 201 195 188 192 173 165 199 225 204 181 184 197 192 261 248 243 295 198 175 228 217 226 246 249 258 264 246 219 223 234 239 238 236 233 231 228 230 232 235
224 219 214 213 212 207 204 203 209 205 207 221 191 167 165 158 153 161 157 169 183 184 189 178 180 184 138 168 175 173 167 166 176 171 173 176 170 167 163 159 154 148 156 137 130 158 167 193 206 194 177 173 178 156 158 219 243 241 235 258 260 194 248 258 241 307 347 174 248 227 232 258 254 260 269 244 214 226 232 235 237 236 234 235 233 234 236 240
225 222 215 214 213 207 205 203 208 207 202 210 201 178 169 166 171 174 161 155 180 186 186 175 178 180 161 169 177 178 169 158 172 172 169 170 170 169 160 157 155 144 148 133 124 147 182 215 187 141 134 144 162 160 180 229 238 237 237 247 262 220 249 278 253 300 24 169 264 280 221 258 261 260 259 232 226 240 239 235 238 238 236 237 236 237 240 242
225 223 217 214 213 206 204 206 207 204 198 200 204 191 175 173 170 170 160 123 143 165 163 166 167 156 151 158 169 175 170 161 170 176 171 169 173 173 159 154 156 145 151 155 150 158 185 209 162 144 144 153 180 189 193 228 235 231 225 218 246 225 197 278 266 269 46 106 212 155 232 266 269 278 271 239 236 247 250 245 244 244 243 242 240 241 243 243
225 224 220 214 212 207 203 206 206 201 199 198 201 194 181 181 168 163 153 97 85 140 154 163 156 151 151 155 165 168 164 163 171 175 174 171 172 169 160 157 153 152 172 170 160 164 176 168 158 155 163 176 189 201 204 210 227 232 213 204 225 221 206 228 274 274 33 4 87 103 324 293 259 266 271 247 237 245 251 248 245 246 245 247 247 245 245 246
224 224 223 215 210 208 203 209 211 202 199 200 205 205 185 182 171 160 148 79 81 138 157 162 154 161 163 160 168 166 152 156 174 174 174 174 169 160 158 163 160 165 176 166 156 171 203 174 161 162 183 188 192 207 207 189 208 246 224 208 216 225 220 210 205 84 79 297 294 111 274 285 284 264 254 257 266 254 251 244 242 246 246 246 248 246 244 246
224 223 224 217 209 206 204 217 216 199 195 200 209 212 182 175 171 160 145 64 145 160 165 163 155 168 169 161 162 158 149 148 176 172 172 177 173 160 154 161 159 164 164 160 156 174 213 181 168 175 185 189 201 212 208 181 185 244 228 204 213 222 201 166 169 146 157 238 283 91 190 258 313 287 250 267 317 277 263 254 246 246 246 244 244 244 244 245
224 222 223 218 210 207 208 218 213 192 190 198 205 206 178 163 168 162 142 56 184 157 159 161 157 167 166 158 157 157 157 146 155 173 174 174 174 167 164 158 133 153 153 145 181 192 173 173 182 189 182 191 205 207 205 179 178 243 225 178 188 199 193 183 177 189 212 220 318 22 144 233 286 263 261 308 307 286 280 269 254 246 244 244 244 244 245 246
224 221 223 218 212 209 207 210 202 189 194 198 196 202 185 158 163 165 148 190 166 129 149 152 144 160 158 156 158 145 138 144 142 183 181 174 174 173 177 174 152 157 163 161 191 204 163 173 188 185 186 202 200 198 190 169 188 247 205 140 154 172 182 181 171 189 272 176 274 306 136 205 268 270 304 345 265 273 271 258 251 243 241 243 245 246 247 247
224 221 221 217 212 210 208 207 200 194 198 197 190 200 195 166 160 160 163 195 142 112 153 146 136 151 148 149 154 119 136 147 135 173 178 178 181 176 174 173 152 146 174 180 187 202 175 187 188 182 192 198 182 193 184 172 202 220 144 97 83 77 73 107 151 144 55 207 237 244 184 209 266 275 301 332 246 252 257 254 248 245 243 244 248 250 251 250
225 221 219 215 212 211 210 210 205 197 196 193 187 191 189 174 160 160 192 181 122 126 150 146 150 152 144 142 152 138 141 136 119 150 169 181 178 159 133 155 147 128 165 193 194 217 346 173 184 186 203 187 172 193 187 180 176 140 119 88 68 51 55 58 64 97 108 252 246 242 218 198 261 272 238 218 227 218 227 250 255 256 256 255 257 261 260 256
224 218 215 212 210 208 207 209 209 196 188 188 182 175 174 172 164 185 178 144 115 138 146 143 149 149 149 150 158 160 148 115 135 148 160 175 176 163 134 150 149 117 140 187 206 277 12 105 177 200 202 177 164 181 167 173 165 133 117 125 104 32 35 32 1 59 193 247 260 256 223 176 229 259 241 239 260 231 214 235 251 264 278 281 279 281 273 263
220 213 211 209 206 205 203 205 205 190 181 181 172 165 161 156 225 199 157 144 146 166 159 150 152 153 158 155 146 155 143 127 155 161 164 169 176 183 169 170 168 151 177 188 180 280 328 234 254 222 205 181 164 173 116 96 174 157 141 147 150 187 122 203 250 236 224 243 274 266 190 207 234 252 261 268 274 257 231 232 244 259 275 283 288 297 288 267
211 207 207 206 204 204 203 201 196 183 176 170 164 159 150 175 197 158 144 163 167 169 161 153 157 158 155 151 145 146 131 139 171 169 166 165 167 189 218 210 176 159 169 166 147 162 220 290 278 167 220 195 176 181 174 155 188 179 164 164 170 157 161 204 226 296 259 255 284 273 224 256 270 262 251 248 255 256 247 248 257 264 270 276 279 288 293 278
201 200 203 202 202 202 200 198 189 179 171 164 160 157 164 183 173 101 161 181 149 146 147 142 145 146 145 146 151 150 119 82 174 165 158 158 165 193 218 216 191 142 111 144 160 176 188 244 216 182 188 180 180 194 170 144 163 198 187 159 169 164 171 201 202 201 236 261 283 278 232 202 203 247 245 244 261 271 268 262 263 266 268 270 271 272 276 278
193 195 197 197 200 199 198 192 183 177 170 163 159 170 180 174 123 147 170 162 138 131 125 131 135 138 141 136 154 162 126 87 166 160 164 173 180 188 192 200 192 146 133 167 181 176 188 227 261 304 107 158 171 192 150 133 164 215 162 135 188 186 153 146 173 176 176 240 268 243 232 214 209 270 277 270 278 279 270 263 261 263 268 265 261 262 262 262
187 190 190 192 195 195 196 189 179 175 169 161 161 189 179 172 161 170 167 159 157 141 132 135 140 142 139 128 166 183 52 116 153 156 178 186 188 192 193 195 190 177 167 167 154 163 180 221 311 355 22 140 163 166 156 162 181 163 126 191 226 162 117 119 191 104 94 212 256 210 245 286 312 290 293 306 298 279 266 261 257 259 266 261 255 254 252 249
183 184 185 189 191 192 194 185 176 174 169 162 186 187 174 185 172 164 160 157 154 145 140 145 158 158 152 148 173 181 130 121 154 164 177 185 196 198 200 206 195 191 185 160 154 202 158 135 315 144 150 240 162 134 120 149 148 137 175 200 199 81 97 120 176 43 77 224 267 330 227 275 314 265 307 334 297 272 265 257 257 261 262 258 255 252 248 244
178 178 181 188 189 191 191 181 172 171 167 165 192 186 177 179 169 159 151 145 146 150 147 152 164 165 163 161 170 175 161 150 168 175 171 184 217 196 190 202 193 188 192 167 148 203 140 119 311 337 159 260 32 116 157 5 103 153 189 182 153 173 210 150 167 179 170 223 274 314 266 256 203 221 296 306 265 259 267 267 258 255 250 250 254 251 243 238
172 172 180 188 187 188 186 176 169 167 166 173 189 190 177 156 161 161 153 146 150 159 159 161 163 164 169 166 164 169 168 162 166 169 172 186 228 202 187 191 178 181 189 175 154 188 138 132 245 309 305 322 19 144 189 199 22 44 109 181 163 169 187 179 163 164 171 212 252 296 303 264 224 215 232 249 249 247 258 267 250 248 252 254 258 255 244 238
168 166 182 186 185 185 179 172 168 168 168 180 183 183 169 157 162 163 159 156 160 168 171 167 159 157 166 162 158 163 166 160 162 168 182 180 192 218 191 185 159 163 174 153 126 171 127 120 186 294 348 145 175 218 194 177 160 117 151 186 211 74 137 167 160 127 140 175 202 250 278 262 245 215 203 228 247 243 234 244 254 263 269 269 268 264 253 244
166 163 180 183 184 179 172 169 171 173 168 182 186 179 167 151 138 159 163 163 164 169 171 167 162 158 157 156 160 162 154 153 167 171 171 177 185 221 194 177 154 143 157 139 134 170 137 115 151 145 144 184 222 254 201 176 170 170 184 189 185 154 112 163 222 199 116 167 172 185 252 263 250 213 203 221 239 240 227 230 255 271 278 282 282 275 262 250
167 167 173 179 179 171 167 167 171 169 175 181 172 153 147 129 131 158 165 166 168 135 136 160 163 154 151 154 157 160 154 152 174 178 172 188 191 205 189 169 155 153 160 157 169 170 122 101 120 143 204 206 246 286 160 170 135 142 213 205 178 170 142 167 214 221 145 209 140 141 249 268 253 210 206 223 239 253 259 243 255 271 279 285 288 280 266 252
168 152 164 176 175 168 166 172 164 171 191 158 143 139 140 129 149 159 163 169 171 136 137 154 156 152 159 157 145 153 157 147 177 183 163 173 191 193 175 160 153 156 158 152 172 164 127 102 106 41 301 294 302 333 33 53 64 209 243 191 160 195 152 143 188 176 175 205 173 180 253 264 267 234 217 238 257 271 272 253 255 270 277 282 281 277 272 255
154 139 156 171 173 170 171 182 162 168 168 137 126 135 120 108 155 158 163 177 177 156 154 163 167 164 165 159 154 164 167 156 191 194 161 157 184 178 168 161 159 164 175 182 176 165 169 136 108 108 27 359 332 319 292 247 181 210 241 107 174 157 82 89 141 97 222 222 179 189 244 253 274 296 245 255 279 284 274 260 257 268 272 280 288 291 292 271
142 136 154 167 173 175 178 181 168 160 156 151 142 150 130 117 170 171 168 173 175 164 160 165 168 158 152 157 158 168 171 162 174 178 144 155 171 172 170 168 168 176 184 179 163 156 170 173 142 146 152 179 203 217 219 198 156 201 203 187 207 175 151 173 128 130 236 231 152 197 238 245 277 319 319 292 303 300 278 260 247 254 265 285 300 300 292 282
144 140 153 164 176 183 185 182 175 162 158 159 150 161 156 145 175 178 170 167 173 159 141 130 144 131 142 157 151 166 177 156 128 163 168 165 164 206 184 176 176 181 178 164 155 150 138 186 180 181 187 194 197 200 175 134 148 204 203 190 197 192 179 157 121 198 215 166 184 225 234 230 248 294 315 293 274 265 265 260 256 265 275 284 287 274 270 280
154 155 159 161 175 182 178 177 179 168 163 162 155 167 167 157 161 175 176 182 177 157 122 90 147 145 158 161 152 171 178 139 109 165 172 168 149 125 181 182 183 177 166 159 159 150 100 200 194 197 204 202 176 174 162 147 179 204 197 189 194 186 173 169 206 217 161 133 234 232 193 219 233 238 257 256 243 234 255 275 288 291 281 273 265 260 276 292
154 151 165 164 156 163 168 162 161 162 165 163 157 161 163 161 161 170 182 188 164 158 136 132 168 168 169 166 158 168 171 149 144 167 165 164 140 111 159 189 197 176 162 163 169 155 139 202 199 191 202 208 133 162 166 164 189 194 183 194 194 183 184 198 219 217 152 203 239 195 157 224 225 209 232 239 234 234 254 276 291 299 291 286 284 285 295 294
115 117 148 155 145 155 161 153 144 155 168 162 152 159 163 165 168 169 164 143 165 175 165 169 181 176 171 170 161 161 169 168 175 180 173 168 165 152 151 173 215 191 167 164 178 173 169 196 188 171 189 204 152 173 173 168 173 169 186 199 192 193 202 209 220 218 198 230 244 204 252 256 211 195 236 248 254 261 269 274 278 290 292 289 285 285 289 288
146 147 139 113 115 158 161 155 152 159 171 166 161 169 169 171 174 172 157 161 175 182 175 177 184 179 173 173 168 172 182 181 180 181 171 162 164 164 164 169 174 174 159 154 176 229 185 191 135 134 170 216 141 152 175 172 170 181 200 204 199 205 213 218 224 219 221 243 255 288 285 276 211 204 227 238 249 259 272 273 272 276 276 273 271 274 280 282
158 159 156 142 127 162 161 158 157 157 169 179 174 172 174 180 177 169 166 190 183 185 186 181 178 174 173 176 178 185 189 186 180 171 164 163 168 171 172 165 147 145 152 156 158 121 117 153 56 101 150 237 186 142 142 123 126 186 228 220 211 210 214 219 220 203 216 236 242 253 265 259 200 203 216 227 236 237 247 255 258 259 257 256 260 264 268 271
154 155 158 153 141 160 158 154 160 162 170 180 172 163 174 183 177 167 166 215 204 199 191 170 160 158 171 187 193 191 186 180 167 162 165 169 169 165 158 156 156 157 158 149 147 136 129 133 109 126 160 243 244 146 131 99 97 239 244 221 209 209 208 214 226 221 222 224 218 234 244 214 158 183 194 214 220 217 230 239 246 253 250 248 253 258 264 268
Height
1432 1434 1436 1440 1445 1449 1452 1455 1457 1461 1464 1467 1470 1474 1477 1479 1482 1486 1488 1491 1494 1497 1500 1502 1505 1508 1511 1514 1517 1520 1523 1525 1527 1527 1528 1530 1532 1533 1535 1535 1536 1537 1538 1540 1541 1543 1545 1547 1549 1551 1552 1554 1556 1557 1557 1556 1555 1556 1558 1561 1562 1563 1560 1556 1557 1556 1555 1553 1553 1554 1554 1556 1557 1558 1559 1560 1561 1560 1560 1561 1561 1562 1562 1563 1564 1565 1565 1567
1430 1432 1434 1437 1442 1447 1450 1453 1455 1458 1462 1465 1469 1472 1475 1478 1481 1485 1487 1490 1493 1496 1498 1501 1505 1507 1510 1513 1516 1519 1522 1524 1526 1526 1528 1530 1531 1533 1535 1535 1537 1537 1538 1540 1541 1544 1546 1548 1549 1551 1553 1555 1557 1558 1558 1556 1556 1557 1560 1562 1561 1559 1555 1551 1552 1552 1552 1551 1551 1553 1554 1555 1555 1556 1558 1560 1561 1561 1560 1561 1561 1561 1561 1562 1564 1564 1565 1567
1429 1430 1433 1434 1438 1444 1448 1451 1453 1457 1460 1463 1467 1471 1474 1477 1480 1483 1486 1490 1492 1495 1498 1500 1504 1507 1510 1512 1515 1518 1521 1524 1525 1525 1527 1529 1531 1533 1535 1536 1536 1537 1538 1539 1541 1544 1546 1548 1550 1552 1553 1556 1558 1559 1559 1557 1556 1557 1559 1560 1557 1554 1551 1549 1550 1549 1550 1551 1551 1552 1553 1554 1554 1556 1557 1558 1561 1561 1559 1559 1559 1559 1560 1561 1563 1564 1565 1566
1428 1429 1431 1433 1435 1440 1445 1449 1452 1455 1458 1461 1465 1469 1472 1475 1479 1482 1485 1489 1492 1495 1497 1500 1503 1506 1509 1512 1515 1517 1521 1525 1523 1522 1526 1528 1530 1532 1535 1536 1536 1537 1537 1539 1541 1544 1546 1548 1550 1552 1554 1556 1558 1560 1560 1558 1557 1557 1557 1557 1554 1552 1551 1548 1547 1548 1549 1550 1550 1551 1553 1554 1554 1555 1556 1557 1561 1561 1558 1556 1556 1557 1558 1560 1562 1564 1565 1565
1427 1428 1430 1432 1434 1438 1442 1447 1451 1453 1455 1459 1463 1467 1470 1474 1477 1481 1484 1488 1491 1494 1497 1499 1502 1505 1509 1511 1514 1516 1522 1526 1521 1520 1525 1526 1529 1532 1534 1535 1536 1536 1537 1539 1540 1543 1546 1547 1549 1552 1554 1556 1558 1560 1560 1558 1558 1558 1555 1553 1552 1552 1551 1548 1547 1547 1547 1549 1551 1552 1552 1552 1553 1554 1555 1555 1557 1557 1555 1554 1555 1556 1556 1558 1560 1562 1564 1565
1426 1427 1428 1431 1434 1436 1439 1444 1449 1451 1454 1458 1462 1465 1468 1472 1476 1479 1483 1487 1490 1494 1496 1499 1501 1505 1508 1510 1514 1515 1519 1522 1518 1518 1523 1525 1528 1531 1533 1534 1535 1536 1537 1538 1540 1543 1545 1547 1549 1551 1553 1555 1558 1560 1559 1558 1558 1559 1556 1552 1552 1552 1550 1548 1548 1547 1546 1547 1549 1550 1550 1550 1552 1553 1553 1553 1553 1553 1553 1555 1556 1556 1557 1557 1559 1560 1562 1563
1425 1426 1427 1429 1433 1435 1438 1442 1446 1449 1452 1456 1459 1463 1467 1470 1474 1478 1482 1486 1489 1493 1496 1499 1501 1504 1507 1509 1513 1515 1516 1517 1515 1516 1520 1524 1527 1530 1532 1533 1534 1535 1536 1538 1540 1542 1544 1546 1548 1550 1553 1556 1559 1559 1559 1558 1557 1559 1557 1553 1552 1551 1550 1548 1548 1547 1547 1546 1546 1548 1550 1550 1550 1551 1553 1552 1551 1553 1554 1555 1556 1556 1556 1557 1558 1559 1560 1560
1422 1424 1426 1428 1430 1433 1436 1440 1444 1447 1449 1453 1458 1461 1465 1469 1473 1477 1481 1485 1489 1492 1495 1498 1501 1503 1505 1507 1511 1514 1514 1514 1515 1516 1519 1523 1526 1528 1530 1532 1533 1534 1536 1538 1539 1541 1543 1545 1547 1549 1554 1557 1559 1559 1560 1558 1556 1557 1556 1554 1553 1550 1549 1548 1548 1547 1547 1547 1548 1549 1550 1550 1550 1551 1551 1550 1551 1553 1554 1554 1555 1556 1556 1556 1557 1558 1559 1560
1419 1422 1424 1426 1428 1430 1434 1438 1442 1445 1447 1450 1455 1459 1463 1467 1471 1475 1479 1484 1488 1491 1495 1497 1500 1502 1505 1507 1509 1512 1511 1513 1516 1516 1518 1520 1524 1527 1529 1530 1531 1533 1535 1537 1538 1540 1542 1544 1546 1548 1552 1556 1558 1559 1559 1558 1557 1558 1557 1555 1553 1550 1549 1548 1547 1547 1547 1548 1548 1549 1550 1551 1551 1552 1550 1548 1551 1552 1553 1554 1554 1555 1555 1555 1557 1558 1559 1559
1417 1419 1422 1424 1426 1429 1433 1435 1438 1442 1444 1447 1452 1456 1460 1465 1469 1474 1478 1482 1487 1490 1494 1497 1499 1502 1504 1506 1508 1510 1509 1512 1516 1517 1517 1519 1522 1525 1527 1529 1530 1532 1534 1536 1538 1539 1540 1542 1545 1547 1550 1553 1556 1558 1559 1559 1557 1557 1556 1554 1552 1550 1548 1548 1547 1547 1547 1548 1549 1549 1551 1551 1552 1553 1549 1547 1549 1551 1552 1552 1553 1554 1554 1554 1556 1557 1559 1559
1414 1417 1420 1423 1425 1427 1431 1433 1435 1439 1442 1444 1449 1453 1457 1462 1467 1472 1476 1481 1485 1489 1493 1496 1499 1501 1503 1505 1506 1507 1508 1512 1516 1517 1517 1518 1520 1523 1526 1528 1529 1531 1533 1535 1537 1538 1540 1542 1544 1547 1550 1553 1555 1557 1558 1558 1557 1557 1556 1553 1550 1549 1548 1547 1547 1548 1548 1548 1549 1549 1551 1552 1553 1552 1547 1546 1548 1549 1550 1551 1552 1552 1552 1553 1554 1556 1558 1558
1412 1415 1418 1421 1424 1426 1429 1432 1434 1438 1441 1442 1446 1451 1455 1460 1464 1469 1475 1480 1484 1489 1492 1495 1498 1500 1503 1505 1505 1506 1508 1511 1515 1516 1516 1517 1520 1523 1525 1527 1529 1531 1532 1534 1535 1537 1539 1542 1544 1546 1548 1551 1555 1557 1556 1557 1557 1556 1555 1554 1550 1548 1548 1546 1547 1548 1548 1548 1549 1551 1554 1554 1552 1548 1545 1546 1547 1548 1550 1550 1550 1551 1551 1552 1553 1555 1556 1557
1409 1413 1417 1420 1423 1425 1427 1430 1432 1436 1440 1441 1444 1448 1453 1457 1462 1468 1473 1478 1483 1488 1491 1495 1497 1500 1503 1504 1505 1506 1508 1511 1513 1515 1516 1517 1520 1522 1525 1527 1529 1531 1533 1534 1535 1536 1539 1541 1543 1545 1547 1550 1554 1555 1555 1556 1556 1554 1554 1553 1551 1551 1549 1545 1546 1548 1548 1549 1549 1551 1557 1554 1548 1544 1544 1546 1546 1547 1548 1548 1549 1550 1550 1551 1552 1553 1554 1556
1407 1410 1414 1418 1421 1424 1426 1428 1431 1433 1437 1440 1442 1446 1452 1456 1461 1466 1471 1476 1481 1486 1490 1494 1497 1500 1501 1502 1504 1506 1508 1510 1512 1514 1515 1516 1518 1522 1524 1526 1529 1530 1532 1534 1535 1536 1539 1541 1543 1545 1547 1549 1551 1553 1555 1557 1556 1555 1554 1554 1554 1555 1551 1546 1546 1547 1548 1550 1549 1551 1556 1551 1544 1542 1544 1545 1545 1546 1547 1547 1548 1548 1549 1550 1550 1551 1552 1554
1405 1408 1411 1415 1419 1422 1424 1426 1428 1432 1436 1439 1440 1445 1451 1455 1460 1464 1470 1475 1480 1485 1489 1492 1495 1498 1500 1502 1502 1504 1506 1508 1510 1512 1515 1516 1517 1520 1523 1525 1528 1529 1532 1533 1534 1536 1539 1541 1542 1544 1547 1549 1551 1555 1558 1558 1557 1556 1556 1557 1558 1557 1552 1546 1546 1547 1547 1549 1549 1552 1555 1550 1543 1541 1543 1544 1544 1545 1546 1546 1546 1547 1548 1549 1549 1550 1551 1552
1403 1406 1409 1412 1416 1420 1422 1424 1427 1431 1436 1440 1440 1444 1449 1454 1459 1464 1469 1474 1479 1483 1486 1490 1492 1495 1498 1499 1501 1502 1504 1506 1508 1512 1514 1516 1517 1519 1522 1525 1527 1529 1532 1533 1534 1537 1539 1541 1542 1544 1547 1549 1552 1555 1560 1563 1560 1558 1558 1557 1558 1556 1554 1550 1547 1546 1547 1549 1549 1551 1552 1548 1542 1540 1541 1542 1543 1544 1545 1544 1545 1546 1546 1547 1548 1548 1549 1550
1401 1404 1407 1410 1414 1418 1421 1423 1425 1429 1435 1439 1441 1443 1448 1453 1458 1463 1469 1474 1478 1482 1485 1487 1490 1495 1497 1497 1497 1497 1499 1503 1506 1509 1512 1515 1518 1520 1522 1524 1526 1529 1531 1534 1536 1537 1540 1541 1543 1545 1547 1549 1552 1555 1563 1569 1565 1561 1559 1557 1557 1556 1554 1552 1548 1546 1548 1549 1550 1550 1550 1546 1540 1540 1541 1541 1542 1543 1543 1543 1544 1544 1545 1545 1546 1546 1547 1548
1399 1402 1405 1408 1411 1415 1419 1421 1424 1428 1433 1436 1438 1441 1446 1452 1458 1463 1467 1471 1476 1481 1485 1487 1490 1494 1493 1489 1490 1491 1495 1501 1505 1507 1510 1513 1517 1520 1522 1523 1525 1528 1531 1534 1536 1538 1540 1541 1543 1546 1549 1550 1550 1551 1558 1562 1560 1559 1557 1555 1555 1554 1554 1553 1548 1546 1548 1549 1550 1551 1551 1547 1541 1540 1541 1541 1542 1542 1542 1542 1543 1543 1543 1544 1544 1545 1545 1546
1397 1399 1402 1405 1408 1412 1416 1420 1423 1426 1431 1434 1434 1439 1446 1451 1455 1460 1461 1464 1468 1472 1475 1476 1479 1482 1478 1478 1484 1490 1495 1500 1503 1506 1508 1511 1516 1519 1522 1524 1525 1526 1529 1534 1537 1538 1539 1543 1545 1546 1546 1547 1546 1546 1551 1554 1553 1555 1555 1553 1552 1550 1551 1551 1547 1546 1548 1548 1550 1550 1549 1546 1541 1539 1540 1541 1542 1542 1542 1543 1543 1542 1542 1543 1543 1543 1543 1544
1394 1396 1399 1402 1406 1410 1414 1418 1421 1424 1429 1433 1432 1433 1437 1438 1444 1453 1457 1460 1461 1462 1463 1465 1469 1473 1472 1475 1482 1488 1493 1499 1502 1504 1507 1510 1514 1517 1521 1524 1525 1527 1528 1532 1536 1537 1539 1543 1543 1541 1542 1544 1546 1547 1550 1553 1554 1555 1555 1554 1552 1551 1549 1546 1546 1547 1547 1548 1548 1548 1548 1545 1541 1538 1539 1542 1542 1542 1542 1541 1541 1540 1541 1541 1541 1541 1541 1541
1391 1394 1397 1400 1404 1407 1412 1415 1419 1422 1425 1432 1431 1423 1421 1422 1425 1433 1444 1457 1463 1462 1463 1466 1470 1473 1474 1475 1479 1484 1491 1498 1501 1503 1506 1509 1512 1515 1520 1522 1525 1528 1529 1530 1535 1537 1539 1542 1541 1540 1542 1545 1547 1548 1550 1552 1554 1555 1555 1554 1553 1553 1550 1546 1547 1547 1547 1548 1546 1547 1548 1545 1541 1538 1539 1541 1542 1540 1539 1539 1538 1538 1539 1539 1538 1538 1539 1539
1389 1392 1394 1398 1401 1405 1410 1413 1417 1421 1424 1432 1430 1419 1416 1417 1417 1417 1425 1445 1458 1460 1462 1465 1468 1472 1474 1477 1479 1483 1489 1495 1500 1503 1505 1508 1511 1514 1516 1520 1524 1528 1529 1530 1534 1539 1542 1542 1541 1542 1543 1546 1548 1549 1551 1553 1554 1555 1556 1555 1554 1553 1550 1547 1547 1547 1548 1548 1546 1548 1548 1543 1539 1537 1538 1540 1539 1537 1536 1536 1536 1536 1537 1537 1536 1536 1537 1537
1386 1389 1392 1396 1399 1403 1408 1411 1415 1420 1422 1426 1426 1422 1419 1418 1420 1422 1426 1442 1455 1459 1461 1464 1467 1469 1473 1477 1479 1482 1485 1490 1496 1500 1503 1505 1509 1511 1513 1518 1523 1527 1529 1529 1532 1539 1543 1541 1540 1542 1544 1546 1549 1549 1550 1553 1553 1554 1556 1556 1554 1552 1550 1547 1546 1548 1548 1548 1548 1548 1547 1542 1538 1536 1536 1536 1536 1534 1533 1534 1534 1535 1535 1534 1534 1534 1535 1535
1383 1387 1390 1393 1397 1402 1406 1410 1414 1417 1417 1420 1422 1422 1420 1419 1423 1423 1427 1445 1457 1458 1461 1464 1466 1469 1473 1477 1479 1482 1485 1489 1492 1496 1500 1502 1506 1510 1512 1515 1520 1525 1527 1527 1529 1535 1538 1537 1537 1541 1543 1546 1549 1549 1550 1552 1553 1553 1553 1553 1551 1548 1547 1546 1547 1548 1548 1550 1549 1548 1549 1542 1535 1536 1533 1531 1533 1532 1531 1532 1532 1532 1532 1531 1532 1532 1532 1532
1380 1384 1387 1391 1395 1399 1404 1409 1408 1407 1411 1416 1416 1418 1421 1421 1425 1423 1425 1444 1458 1460 1463 1463 1465 1469 1473 1476 1479 1482 1485 1490 1492 1494 1499 1501 1503 1507 1511 1515 1518 1523 1526 1527 1530 1534 1535 1534 1536 1540 1543 1545 1547 1548 1548 1550 1553 1553 1550 1548 1547 1545 1545 1546 1549 1550 1551 1552 1549 1550 1554 1544 1533 1535 1532 1529 1532 1531 1529 1530 1529 1528 1529 1529 1529 1528 1528 1529
1377 1380 1383 1388 1392 1397 1404 1404 1400 1402 1407 1410 1411 1419 1421 1419 1425 1425 1427 1445 1457 1459 1461 1461 1463 1467 1470 1474 1477 1481 1487 1492 1493 1495 1499 1503 1504 1505 1511 1515 1517 1521 1525 1527 1531 1532 1532 1533 1534 1538 1541 1544 1547 1547 1546 1547 1553 1553 1547 1544 1544 1545 1546 1547 1549 1550 1551 1552 1550 1552 1554 1548 1537 1530 1529 1531 1532 1529 1528 1528 1526 1525 1525 1525 1525 1523 1524 1525
1373 1376 1379 1384 1388 1395 1398 1395 1397 1400 1399 1400 1408 1420 1422 1419 1423 1425 1433 1449 1453 1453 1456 1459 1462 1464 1467 1472 1474 1478 1484 1488 1493 1497 1498 1502 1506 1506 1510 1514 1516 1521 1523 1527 1532 1530 1528 1533 1536 1537 1540 1543 1545 1544 1543 1544 1550 1549 1542 1541 1544 1545 1546 1547 1548 1549 1549 1550 1552 1553 1552 1552 1545 1530 1528 1534 1531 1525 1525 1525 1523 1521 1521 1520 1520 1519 1519 1521
1368 1372 1375 1380 1385 1390 1390 1391 1395 1392 1389 1394 1405 1417 1421 1419 1422 1426 1435 1443 1442 1445 1451 1455 1460 1463 1467 1472 1474 1476 1477 1478 1488 1498 1499 1501 1506 1506 1509 1512 1514 1519 1520 1523 1530 1526 1523 1530 1533 1536 1539 1541 1539 1539 1540 1542 1546 1544 1539 1541 1543 1544 1546 1546 1548 1550 1551 1550 1549 1551 1552 1554 1547 1533 1530 1534 1529 1524 1522 1520 1519 1516 1515 1515 1515 1515 1516 1517
1363 1367 1370 1376 1383 1385 1387 1391 1389 1383 1386 1394 1403 1415 1420 1420 1422 1428 1435 1436 1434 1440 1445 1451 1459 1463 1466 1471 1475 1476 1477 1478 1483 1492 1498 1502 1504 1504 1507 1510 1512 1518 1519 1519 1523 1523 1522 1525 1527 1531 1534 1534 1534 1536 1538 1540 1542 1540 1540 1542 1543 1546 1548 1550 1551 1550 1553 1554 1548 1547 1550 1551 1544 1531 1529 1531 1527 1524 1519 1515 1515 1512 1511 1512 1512 1512 1512 1513
1357 1361 1365 1373 1378 1380 1384 1389 1386 1382 1387 1393 1401 1411 1419 1422 1423 1427 1432 1428 1429 1439 1443 1449 1456 1459 1464 1471 1476 1478 1478 1481 1483 1489 1497 1500 1502 1504 1505 1510 1514 1518 1521 1521 1522 1522 1522 1524 1526 1528 1530 1529 1531 1535 1536 1537 1538 1539 1541 1542 1543 1547 1548 1551 1553 1550 1554 1555 1548 1549 1552 1552 1545 1530 1524 1524 1521 1518 1515 1512 1511 1509 1509 1510 1509 1510 1509 1510
1349 1354 1360 1366 1369 1373 1379 1382 1383 1385 1388 1392 1401 1409 1416 1423 1423 1423 1422 1416 1424 1439 1443 1446 1453 1457 1461 1466 1474 1476 1476 1482 1484 1488 1495 1497 1500 1503 1503 1508 1514 1519 1524 1524 1523 1524 1524 1526 1527 1527 1527 1528 1530 1533 1536 1537 1537 1538 1539 1539 1543 1548 1548 1551 1553 1553 1557 1555 1550 1556 1559 1556 1549 1532 1519 1518 1516 1515 1513 1510 1508 1507 1507 1507 1507 1507 1507 1507
1341 1347 1354 1360 1364 1368 1370 1373 1379 1385 1387 1392 1401 1405 1411 1420 1421 1417 1415 1412 1422 1434 1436 1440 1446 1450 1455 1461 1468 1473 1474 1480 1483 1485 1489 1491 1495 1497 1497 1500 1504 1514 1523 1522 1523 1526 1524 1525 1526 1526 1526 1527 1528 1532 1537 1539 1538 1538 1537 1538 1545 1553 1556 1557 1557 1558 1559 1554 1554 1561 1559 1553 1546 1530 1519 1517 1515 1513 1512 1509 1507 1506 1505 1505 1505 1505 1504 1504
1332 1341 1348 1353 1358 1361 1365 1371 1378 1381 1385 1390 1397 1402 1408 1412 1412 1411 1413 1413 1416 1422 1425 1432 1439 1443 1448 1456 1465 1470 1473 1479 1481 1483 1486 1489 1493 1496 1496 1496 1497 1503 1511 1516 1522 1526 1526 1526 1524 1524 1524 1523 1524 1527 1533 1538 1539 1538 1536 1536 1542 1552 1559 1561 1563 1564 1561 1554 1556 1561 1557 1549 1540 1526 1516 1514 1509 1507 1508 1507 1505 1504 1503 1503 1503 1503 1503 1503
1325 1334 1341 1348 1354 1357 1363 1371 1374 1375 1382 1388 1391 1400 1404 1404 1406 1410 1413 1413 1412 1416 1423 1429 1438 1446 1449 1455 1462 1464 1470 1479 1480 1480 1485 1490 1495 1497 1495 1495 1496 1497 1504 1514 1519 1521 1525 1524 1520 1519 1520 1519 1521 1522 1525 1531 1536 1536 1532 1531 1535 1540 1547 1552 1555 1555 1553 1552 1557 1560 1552 1540 1529 1517 1510 1508 1506 1505 1505 1505 1504 1502 1502 1501 1501 1501 1502 1502
1320 1328 1335 1344 1350 1355 1361 1368 1369 1371 1377 1382 1389 1396 1397 1396 1403 1410 1410 1409 1410 1417 1427 1432 1438 1448 1454 1458 1461 1459 1462 1475 1480 1482 1485 1486 1488 1490 1489 1490 1493 1494 1500 1510 1513 1514 1519 1519 1516 1517 1517 1516 1519 1520 1521 1526 1533 1535 1532 1530 1530 1527 1530 1543 1552 1550 1550 1553 1554 1553 1544 1531 1520 1510 1506 1507 1506 1504 1503 1502 1502 1500 1500 1499 1499 1499 1500 1501
1318 1326 1333 1339 1344 1350 1358 1363 1366 1370 1372 1377 1388 1392 1388 1388 1395 1402 1402 1400 1403 1409 1422 1436 1440 1445 1456 1462 1462 1461 1460 1467 1477 1483 1486 1485 1484 1485 1484 1484 1488 1488 1489 1497 1504 1509 1514 1517 1517 1518 1518 1517 1518 1519 1520 1522 1526 1532 1533 1530 1528 1525 1523 1536 1554 1558 1556 1552 1548 1546 1538 1527 1521 1511 1502 1503 1503 1500 1500 1500 1499 1499 1498 1498 1496 1496 1498 1499
1313 1321 1329 1334 1338 1345 1352 1357 1362 1369 1371 1375 1383 1384 1382 1384 1386 1391 1393 1393 1397 1399 1407 1426 1434 1435 1447 1457 1460 1459 1459 1466 1475 1479 1484 1487 1483 1481 1483 1482 1483 1484 1483 1487 1495 1501 1508 1516 1519 1517 1517 1518 1518 1519 1520 1519 1521 1527 1530 1527 1526 1529 1527 1529 1541 1553 1556 1550 1544 1545 1537 1526 1525 1517 1502 1500 1500 1496 1497 1498 1498 1498 1497 1496 1494 1494 1496 1496
1308 1319 1326 1329 1335 1342 1349 1355 1358 1362 1368 1375 1381 1379 1377 1380 1381 1384 1388 1391 1398 1400 1402 1414 1422 1424 1433 1443 1448 1451 1453 1461 1470 1473 1478 1482 1475 1470 1475 1477 1478 1482 1482 1485 1491 1496 1501 1513 1521 1519 1518 1519 1518 1519 1520 1520 1520 1520 1522 1521 1522 1528 1531 1530 1535 1543 1550 1549 1541 1541 1542 1534 1527 1517 1502 1498 1498 1493 1494 1496 1497 1497 1495 1494 1493 1493 1494 1495
1306 1317 1323 1325 1332 1339 1345 1353 1355 1357 1363 1371 1377 1376 1373 1375 1378 1380 1384 1389 1394 1399 1401 1405 1411 1419 1426 1430 1437 1445 1446 1449 1459 1465 1469 1473 1469 1465 1466 1470 1475 1480 1482 1483 1488 1492 1496 1507 1518 1521 1519 1519 1519 1519 1518 1519 1521 1521 1520 1520 1519 1521 1524 1526 1530 1533 1538 1544 1540 1537 1539 1532 1521 1513 1503 1497 1494 1492 1492 1493 1494 1494 1493 1492 1492 1492 1493 1494
1301 1310 1317 1321 1329 1336 1343 1351 1354 1353 1357 1363 1367 1369 1368 1370 1374 1376 1379 1382 1386 1391 1395 1398 1403 1414 1423 1427 1433 1440 1444 1447 1453 1458 1459 1462 1465 1464 1464 1467 1472 1478 1483 1485 1487 1490 1495 1501 1511 1520 1522 1520 1519 1518 1515 1515 1518 1520 1521 1522 1522 1521 1522 1523 1527 1529 1529 1534 1537 1536 1532 1520 1509 1505 1500 1494 1491 1490 1491 1492 1492 1492 1491 1491 1491 1491 1492 1493
1299 1306 1311 1317 1325 1333 1340 1347 1347 1347 1353 1358 1360 1362 1363 1364 1368 1374 1377 1379 1382 1384 1387 1391 1396 1403 1414 1424 1430 1434 1440 1448 1452 1453 1457 1459 1459 1460 1460 1462 1468 1474 1480 1485 1486 1487 1494 1500 1508 1518 1521 1517 1517 1517 1517 1516 1516 1516 1517 1518 1518 1519 1522 1525 1529 1530 1527 1527 1532 1534 1527 1510 1497 1496 1495 1491 1489 1489 1491 1492 1491 1490 1489 1489 1490 1490 1491 1492
1296 1300 1304 1311 1320 1327 1334 1340 1342 1345 1349 1352 1354 1356 1359 1361 1365 1372 1375 1379 1382 1383 1386 1390 1394 1399 1407 1416 1424 1429 1434 1443 1448 1449 1451 1453 1452 1453 1456 1458 1464 1470 1475 1482 1484 1484 1491 1499 1508 1516 1519 1517 1517 1518 1520 1519 1517 1517 1517 1515 1515 1515 1516 1519 1524 1526 1527 1529 1532 1534 1527 1505 1491 1493 1493 1489 1488 1489 1491 1491 1489 1488 1488 1488 1489 1489 1490 1491
1291 1296 1302 1310 1317 1322 1330 1335 1339 1344 1346 1346 1350 1353 1355 1357 1363 1369 1373 1377 1381 1382 1386 1391 1395 1400 1405 1410 1420 1429 1432 1439 1446 1445 1446 1451 1451 1451 1455 1457 1461 1467 1472 1477 1480 1482 1487 1494 1504 1515 1518 1516 1514 1515 1518 1520 1518 1517 1516 1515 1516 1514 1512 1515 1518 1520 1522 1524 1525 1530 1525 1502 1488 1491 1491 1489 1489 1490 1490 1490 1489 1488 1487 1487 1488 1488 1489 1490
1289 1295 1302 1310 1317 1320 1323 1326 1330 1339 1344 1345 1350 1353 1354 1357 1361 1365 1370 1373 1376 1377 1381 1387 1390 1392 1398 1403 1410 1418 1423 1432 1442 1444 1443 1447 1449 1451 1453 1455 1457 1462 1464 1466 1470 1476 1483 1491 1501 1513 1520 1520 1519 1518 1515 1515 1518 1516 1515 1517 1516 1514 1517 1518 1519 1521 1520 1516 1516 1522 1516 1497 1487 1489 1490 1489 1491 1489 1488 1489 1488 1487 1487 1487 1488 1488 1488 1489
1286 1294 1302 1310 1316 1317 1317 1318 1320 1330 1340 1344 1349 1352 1353 1358 1360 1360 1364 1368 1371 1373 1376 1382 1385 1387 1394 1400 1406 1412 1415 1420 1432 1441 1443 1445 1448 1450 1451 1452 1453 1455 1458 1461 1465 1471 1479 1486 1491 1500 1511 1515 1515 1510 1502 1504 1515 1517 1514 1516 1514 1513 1516 1514 1516 1521 1517 1514 1517 1513 1501 1491 1486 1487 1488 1489 1490 1489 1487 1488 1487 1487 1487 1487 1487 1488 1488 1488
1275 1286 1297 1306 1313 1315 1316 1317 1316 1321 1329 1336 1345 1351 1352 1357 1361 1361 1363 1367 1371 1373 1375 1380 1385 1391 1398 1403 1409 1416 1416 1417 1424 1433 1439 1442 1444 1447 1448 1448 1450 1452 1456 1460 1464 1469 1478 1483 1482 1484 1490 1491 1490 1490 1488 1494 1506 1508 1506 1508 1510 1511 1512 1512 1517 1514 1507 1512 1513 1498 1489 1491 1489 1487 1489 1488 1488 1488 1486 1486 1487 1487 1487 1487 1488 1488 1488 1488
1268 1275 1283 1292 1303 1310 1313 1316 1317 1318 1321 1326 1336 1344 1347 1353 1358 1362 1365 1366 1369 1372 1377 1382 1384 1390 1396 1400 1407 1415 1416 1418 1422 1425 1431 1437 1440 1444 1447 1448 1450 1452 1455 1458 1461 1466 1474 1479 1479 1478 1478 1478 1479 1484 1487 1490 1494 1495 1499 1505 1508 1510 1511 1513 1510 1500 1497 1507 1502 1487 1488 1495 1491 1488 1489 1485 1485 1487 1487 1486 1487 1487 1487 1487 1487 1487 1487 1487
1267 1273 1277 1282 1292 1301 1306 1312 1318 1320 1321 1324 1330 1336 1342 1348 1353 1358 1361 1365 1368 1369 1375 1382 1383 1383 1386 1389 1396 1407 1414 1418 1422 1424 1428 1434 1438 1442 1447 1450 1451 1450 1452 1456 1458 1460 1466 1471 1473 1475 1478 1480 1481 1484 1486 1488 1489 1493 1498 1502 1505 1508 1509 1506 1498 1492 1494 1496 1487 1482 1487 1487 1486 1488 1486 1483 1484 1485 1486 1487 1487 1487 1486 1486 1485 1485 1486 1487
1267 1274 1282 1285 1289 1294 1298 1306 1316 1323 1324 1325 1330 1335 1340 1345 1349 1350 1354 1361 1366 1365 1367 1375 1377 1375 1379 1382 1386 1397 1406 1410 1415 1417 1418 1424 1430 1434 1442 1448 1449 1449 1451 1454 1456 1457 1459 1465 1469 1473 1477 1480 1483 1486 1486 1486 1489 1493 1495 1498 1501 1503 1500 1494 1489 1490 1493 1487 1481 1486 1488 1483 1486 1488 1484 1483 1485 1484 1484 1485 1484 1484 1484 1484 1485 1485 1486 1487
1264 1270 1278 1286 1292 1294 1295 1299 1308 1319 1324 1324 1328 1333 1336 1340 1343 1345 1349 1353 1356 1358 1358 1362 1367 1369 1373 1376 1378 1384 1386 1384 1390 1398 1404 1414 1421 1424 1430 1435 1439 1447 1451 1453 1457 1458 1458 1465 1471 1472 1477 1481 1484 1488 1489 1488 1488 1490 1493 1496 1497 1496 1494 1491 1489 1493 1495 1487 1486 1492 1489 1482 1484 1485 1482 1484 1483 1482 1483 1482 1481 1483 1483 1483 1484 1485 1485 1485
1264 1269 1273 1281 1292 1297 1297 1300 1304 1312 1320 1323 1324 1328 1333 1335 1337 1340 1346 1347 1346 1348 1348 1349 1357 1367 1373 1376 1375 1374 1374 1372 1377 1385 1392 1401 1409 1413 1420 1426 1433 1444 1451 1453 1456 1456 1460 1469 1472 1473 1479 1482 1482 1487 1491 1491 1491 1493 1494 1494 1491 1490 1491 1491 1491 1492 1489 1485 1490 1495 1485 1477 1479 1481 1481 1482 1481 1482 1482 1480 1480 1481 1481 1483 1483 1483 1484 1483
1264 1271 1274 1278 1288 1295 1296 1301 1307 1311 1315 1318 1320 1325 1329 1333 1336 1338 1343 1347 1346 1347 1348 1349 1356 1367 1375 1377 1372 1367 1371 1377 1382 1388 1392 1396 1402 1408 1414 1421 1426 1434 1443 1450 1455 1457 1460 1466 1470 1473 1478 1480 1484 1489 1489 1490 1496 1495 1485 1479 1481 1486 1488 1490 1489 1485 1481 1481 1487 1484 1473 1469 1476 1478 1479 1480 1481 1480 1478 1477 1477 1477 1479 1481 1481 1481 1482 1481